Weather past 2 weeks in Cayenne, French Guiana

Now
84 °F

Broken clouds.


Feels Like: 96 °F
Forecast: 79 / 83 °F
Wind: 3 mph from North

Location: Cayenne / Rochambeau

Current Time: May 22, 2015 at 9:27:54 AM

Latest Report: May 22, 2015 at 9:00 AM


Visibility: N/A

Pressure: 29.98 "Hg

Humidity: 84%

Dew point: 79 °F

Location of CayenneLocation

Historic Weather in Cayenne — Graph

°F

Cayenne temperature yesterday

Maximum temperature yesterday: 84 °F (at 1:30 PM)
Minimum temperature yesterday: 75 °F (at 12:00 AM)
Average temperature yesterday: 78 °F

Past Weeks' High & Low Weather Summary

 TemperatureHumidityPressure
High99 °F (May 13, 6:00 PM)100% (May 11, 4:30 AM)30.01 "Hg (May 11, 4:30 AM)
Low73 °F (May 8, 4:30 AM)44% (May 13, 6:00 PM)29.83 "Hg (May 11, 4:00 PM)
Average79 °F86%29.91 "Hg
* Reported May 7 8:00 AM — May 22 8:37 AM, Cayenne, Weather by CustomWeather, © 2015

Note: Actual official high and low records may vary slightly from our data, if they occured in-between our weather recording intervals... More about our weather records

Advertising

Cayenne weather history for previous 24 hours

 ConditionsComfort  
Time TempWeatherWind HumidityBarometerVisibility
8:37 AM
Fri, May 22
81 °FBroken clouds.2 mph89%29.98 "HgN/A
8:00 AM77 °FScattered clouds.2 mph94%29.98 "HgN/A
7:30 AM75 °FPassing clouds.No wind100%29.98 "HgN/A
7:00 AM75 °FBroken clouds.No wind94%29.95 "HgN/A
6:30 AM73 °FScattered clouds.No wind94%29.95 "HgN/A
6:00 AM73 °FPassing clouds.No wind100%29.92 "HgN/A
5:30 AM73 °FPassing clouds.No wind100%29.92 "HgN/A
5:00 AM75 °FPassing clouds.No wind94%29.92 "HgN/A
4:30 AM75 °FPassing clouds.No wind94%29.92 "HgN/A
4:00 AM75 °FPassing clouds.No wind94%29.92 "HgN/A
3:30 AM75 °FPassing clouds.No wind94%29.92 "HgN/A
3:00 AM75 °FHeavy rain. Fog.7 mph94%29.92 "Hg2 mi
2:30 AM75 °FPartly cloudy.No wind94%29.92 "HgN/A
2:00 AM75 °FMild.No wind94%29.95 "HgN/A
1:30 AM75 °FMild.No wind94%29.95 "HgN/A
1:00 AM77 °FWarm.No wind94%29.95 "HgN/A
12:30 AM77 °FPartly cloudy.5 mph94%29.95 "HgN/A
12:00 AM77 °FPartly cloudy.No wind94%29.95 "HgN/A
11:30 PM
Thu, May 21
77 °FWarm.No wind94%29.98 "HgN/A
11:00 PM77 °FPassing clouds.No wind89%29.98 "HgN/A
10:30 PM77 °FPartly cloudy.No wind94%29.95 "HgN/A
10:00 PM77 °FMostly cloudy.No wind94%29.95 "HgN/A
9:30 PM79 °FPartly cloudy.3 mph89%29.95 "HgN/A
9:00 PM79 °FPassing clouds.8 mph89%29.95 "HgN/A
8:30 PM77 °FPartly cloudy.No wind94%29.92 "HgN/A
8:00 PM77 °FWarm.No wind94%29.92 "HgN/A
7:30 PM79 °FPassing clouds.No wind89%29.92 "HgN/A
7:00 PM79 °FWarm.No wind89%29.89 "HgN/A
6:30 PM81 °FPassing clouds.3 mph84%29.89 "HgN/A
6:00 PM81 °FPassing clouds.6 mph84%29.89 "HgN/A
5:30 PM82 °FPassing clouds.10 mph79%29.89 "HgN/A
5:00 PM84 °FPassing clouds.9 mph74%29.89 "HgN/A
4:30 PM84 °FPassing clouds.15 mph74%29.89 "HgN/A
4:00 PM84 °FScattered clouds.14 mph74%29.89 "HgN/A
3:30 PM84 °FScattered clouds.12 mph74%29.89 "HgN/A
3:00 PM82 °FPartly sunny.12 mph84%29.89 "HgN/A
2:30 PM81 °FLight rain. Partly sunny.12 mph89%29.89 "HgN/A
2:00 PM84 °FBroken clouds.6 mph79%29.92 "HgN/A
1:30 PM84 °FPartly sunny.3 mph74%29.92 "HgN/A
1:00 PM82 °FPartly sunny.1 mph84%29.95 "HgN/A
12:00 PM79 °FPartly sunny.2 mph89%29.98 "HgN/A
11:30 AM79 °FBroken clouds.3 mph89%29.98 "HgN/A
11:00 AM79 °FRain. Fog.3 mph94%29.98 "Hg2 mi
10:30 AM77 °FRain. Mostly cloudy.3 mph94%29.98 "HgN/A
10:00 AM77 °FLight rain. Partly sunny.2 mph94%29.98 "HgN/A
9:30 AM77 °FPartly sunny.No wind94%29.98 "HgN/A
9:00 AM75 °FLight rain. Partly sunny.1 mph100%29.98 "HgN/A
Weather by CustomWeather, © 2015

See weather overviewHow to use our weather pages